Time,TemperatureF,DewpointF,PressureIn,WindDirection,WindDirectionDegrees,WindSpeedMPH,WindSpeedGustMPH,Humidity,HourlyPrecipIn,Conditions,Clouds,dailyrainin,SoftwareType,DateUTC
2013-03-22 00:03:00,50.7,29.0,30.02,West,271,0.0,0.0,43,0.00,,CLR,0.00,VWS V14.01,2013-03-22 07:03:00,
2013-03-22 00:08:00,50.4,28.2,30.02,West,271,0.0,0.0,42,0.00,,CLR,0.00,VWS V14.01,2013-03-22 07:08:00,
2013-03-22 00:13:00,50.8,28.0,30.02,NW,307,1.0,2.0,41,0.00,,CLR,0.00,VWS V14.01,2013-03-22 07:13:00,
2013-03-22 00:18:00,51.6,27.5,30.02,NE,39,0.0,2.0,39,0.00,,CLR,0.00,VWS V14.01,2013-03-22 07:18:00,
2013-03-22 00:23:00,52.1,27.9,30.02,WNW,295,0.0,3.0,39,0.00,,CLR,0.00,VWS V14.01,2013-03-22 07:23:00,
2013-03-22 00:28:00,52.4,27.6,30.02,WNW,282,0.0,3.0,38,0.00,,CLR,0.00,VWS V14.01,2013-03-22 07:28:00,
2013-03-22 00:33:00,52.5,27.6,30.02,North,349,0.0,2.0,38,0.00,,CLR,0.00,VWS V14.01,2013-03-22 07:33:00,
2013-03-22 00:38:00,53.2,27.6,30.02,North,352,0.0,6.0,37,0.00,,CLR,0.00,VWS V14.01,2013-03-22 07:38:00,
2013-03-22 00:43:00,54.4,27.3,30.02,NNE,30,2.0,6.0,35,0.00,,CLR,0.00,VWS V14.01,2013-03-22 07:43:00,
2013-03-22 00:48:00,55.2,27.3,30.02,NNW,343,8.0,8.0,34,0.00,,CLR,0.00,VWS V14.01,2013-03-22 07:48:00,
2013-03-22 00:53:00,55.6,27.0,30.02,North,360,4.0,8.0,33,0.00,,CLR,0.00,VWS V14.01,2013-03-22 07:53:00,
2013-03-22 00:58:00,55.9,25.7,30.02,NE,39,3.0,11.0,31,0.00,,CLR,0.00,VWS V14.01,2013-03-22 07:58:00,
2013-03-22 01:03:00,56.0,25.8,30.02,North,357,5.0,7.0,31,0.00,,CLR,0.00,VWS V14.01,2013-03-22 08:03:00,
2013-03-22 01:08:00,56.0,25.8,30.02,NNE,30,3.0,7.0,31,0.00,,CLR,0.00,VWS V14.01,2013-03-22 08:08:00,
2013-03-22 01:13:00,56.1,25.1,30.02,NNE,15,1.0,8.0,30,0.00,,CLR,0.00,VWS V14.01,2013-03-22 08:13:00,
2013-03-22 01:18:00,56.2,25.2,30.02,NNE,24,5.0,8.0,30,0.00,,CLR,0.00,VWS V14.01,2013-03-22 08:18:00,
2013-03-22 01:23:00,56.3,24.5,30.02,NNE,27,7.0,10.0,29,0.00,,CLR,0.00,VWS V14.01,2013-03-22 08:23:00,
2013-03-22 01:28:00,56.4,24.6,30.02,North,8,3.0,10.0,29,0.00,,CLR,0.00,VWS V14.01,2013-03-22 08:28:00,
2013-03-22 01:33:00,56.4,24.6,30.02,NNE,27,5.0,8.0,29,0.00,,CLR,0.00,VWS V14.01,2013-03-22 08:33:00,
2013-03-22 01:38:00,56.3,24.5,30.02,NE,44,5.0,11.0,29,0.00,,CLR,0.00,VWS V14.01,2013-03-22 08:38:00,
2013-03-22 01:43:00,56.4,24.6,30.02,NNW,346,7.0,14.0,29,0.00,,CLR,0.00,VWS V14.01,2013-03-22 08:43:00,
2013-03-22 01:48:00,56.4,24.6,30.02,NNE,15,8.0,14.0,29,0.00,,CLR,0.00,VWS V14.01,2013-03-22 08:48:00,
2013-03-22 01:53:00,56.4,23.7,30.02,NNE,20,3.0,14.0,28,0.00,,CLR,0.00,VWS V14.01,2013-03-22 08:53:00,
2013-03-22 01:58:00,56.3,23.6,30.02,NE,53,2.0,14.0,28,0.00,,CLR,0.00,VWS V14.01,2013-03-22 08:58:00,
2013-03-22 02:03:00,56.4,23.7,30.02,North,353,3.0,12.0,28,0.00,,CLR,0.00,VWS V14.01,2013-03-22 09:03:00,
2013-03-22 02:08:00,56.3,22.8,30.02,North,349,4.0,12.0,27,0.00,,CLR,0.00,VWS V14.01,2013-03-22 09:08:00,
2013-03-22 02:13:00,56.2,22.7,30.02,NE,34,5.0,17.0,27,0.00,,CLR,0.00,VWS V14.01,2013-03-22 09:13:00,
2013-03-22 02:18:00,56.1,22.6,30.02,North,1,11.0,17.0,27,0.00,,CLR,0.00,VWS V14.01,2013-03-22 09:18:00,
2013-03-22 02:23:00,56.1,22.6,30.02,NNE,12,5.0,17.0,27,0.00,,CLR,0.00,VWS V14.01,2013-03-22 09:23:00,
2013-03-22 02:28:00,56.0,21.6,30.02,North,6,9.0,17.0,26,0.00,,CLR,0.00,VWS V14.01,2013-03-22 09:28:00,
2013-03-22 02:33:00,55.9,21.5,30.02,North,6,7.0,11.0,26,0.00,,CLR,0.00,VWS V14.01,2013-03-22 09:33:00,
2013-03-22 02:38:00,55.7,21.4,30.02,NNW,333,3.0,12.0,26,0.00,,CLR,0.00,VWS V14.01,2013-03-22 09:38:00,
2013-03-22 02:43:00,55.7,21.4,30.02,NNE,23,4.0,12.0,26,0.00,,CLR,0.00,VWS V14.01,2013-03-22 09:43:00,
2013-03-22 02:48:00,55.6,21.3,30.02,NNE,18,5.0,12.0,26,0.00,,CLR,0.00,VWS V14.01,2013-03-22 09:48:00,
2013-03-22 02:53:00,55.3,21.9,30.02,NNE,15,4.0,12.0,27,0.00,,CLR,0.00,VWS V14.01,2013-03-22 09:53:00,
2013-03-22 02:58:00,55.1,21.7,30.02,NNW,347,8.0,16.0,27,0.00,,CLR,0.00,VWS V14.01,2013-03-22 09:58:00,
2013-03-22 03:03:00,54.9,21.6,30.02,NNW,348,7.0,10.0,27,0.00,,CLR,0.00,VWS V14.01,2013-03-22 10:03:00,
2013-03-22 03:08:00,54.9,21.6,30.02,NNE,12,6.0,11.0,27,0.00,,CLR,0.00,VWS V14.01,2013-03-22 10:08:00,
2013-03-22 03:13:00,54.9,20.7,30.02,NE,40,2.0,16.0,26,0.00,,CLR,0.00,VWS V14.01,2013-03-22 10:13:00,
2013-03-22 03:18:00,54.9,19.8,30.02,North,6,4.0,16.0,25,0.00,,CLR,0.00,VWS V14.01,2013-03-22 10:18:00,
2013-03-22 03:23:00,54.9,19.8,30.02,North,11,1.0,16.0,25,0.00,,CLR,0.00,VWS V14.01,2013-03-22 10:23:00,
2013-03-22 03:28:00,55.1,19.0,30.02,West,278,4.0,16.0,24,0.00,,CLR,0.00,VWS V14.01,2013-03-22 10:28:00,
2013-03-22 03:33:00,55.2,18.1,30.02,North,8,5.0,9.0,23,0.00,,CLR,0.00,VWS V14.01,2013-03-22 10:33:00,
2013-03-22 03:38:00,55.1,18.0,30.02,North,351,5.0,9.0,23,0.00,,CLR,0.00,VWS V14.01,2013-03-22 10:38:00,
2013-03-22 03:43:00,55.3,18.1,30.03,NNE,22,4.0,14.0,23,0.00,,CLR,0.00,VWS V14.01,2013-03-22 10:43:00,
2013-03-22 03:48:00,55.3,18.1,30.02,NNE,16,6.0,16.0,23,0.00,,CLR,0.00,VWS V14.01,2013-03-22 10:48:00,
2013-03-22 03:53:00,55.4,17.2,30.03,NNE,32,13.0,16.0,22,0.00,,CLR,0.00,VWS V14.01,2013-03-22 10:53:00,
2013-03-22 03:58:00,55.6,16.3,30.03,WNW,298,5.0,16.0,21,0.00,,CLR,0.00,VWS V14.01,2013-03-22 10:58:00,
2013-03-22 04:03:00,55.6,15.2,30.03,NE,37,3.0,14.0,20,0.00,,CLR,0.00,VWS V14.01,2013-03-22 11:03:00,
2013-03-22 04:08:00,55.5,16.2,30.03,North,5,5.0,17.0,21,0.00,,CLR,0.00,VWS V14.01,2013-03-22 11:08:00,
2013-03-22 04:14:00,55.4,16.1,30.03,North,356,4.0,17.0,21,0.00,,CLR,0.00,VWS V14.01,2013-03-22 11:14:00,
2013-03-22 04:19:00,55.3,16.0,30.03,NNE,12,8.0,17.0,21,0.00,,CLR,0.00,VWS V14.01,2013-03-22 11:19:00,
2013-03-22 04:24:00,55.2,16.0,30.03,NE,37,12.0,17.0,21,0.00,,CLR,0.00,VWS V14.01,2013-03-22 11:24:00,
2013-03-22 04:29:00,55.1,14.8,30.04,North,8,6.0,17.0,20,0.00,,CLR,0.00,VWS V14.01,2013-03-22 11:29:00,
2013-03-22 04:34:00,55.1,14.8,30.04,North,11,7.0,11.0,20,0.00,,CLR,0.00,VWS V14.01,2013-03-22 11:34:00,
2013-03-22 04:39:00,55.0,14.7,30.03,North,349,6.0,19.0,20,0.00,,CLR,0.00,VWS V14.01,2013-03-22 11:39:00,
2013-03-22 04:44:00,55.0,14.7,30.04,SE,124,7.0,19.0,20,0.00,,CLR,0.00,VWS V14.01,2013-03-22 11:44:00,
2013-03-22 04:48:00,54.9,15.7,30.04,North,5,6.0,19.0,21,0.00,,CLR,0.00,VWS V14.01,2013-03-22 11:48:00,
2013-03-22 04:54:00,54.7,15.6,30.04,North,353,8.0,19.0,21,0.00,,CLR,0.00,VWS V14.01,2013-03-22 11:54:00,
2013-03-22 04:59:00,54.7,15.6,30.03,NW,314,3.0,19.0,21,0.00,,CLR,0.00,VWS V14.01,2013-03-22 11:59:00,
2013-03-22 05:04:00,54.6,15.5,30.03,North,6,4.0,14.0,21,0.00,,CLR,0.00,VWS V14.01,2013-03-22 12:04:00,
2013-03-22 05:09:00,54.5,15.4,30.04,NNE,18,6.0,14.0,21,0.00,,CLR,0.00,VWS V14.01,2013-03-22 12:09:00,
2013-03-22 05:14:00,54.5,15.4,30.04,North,357,7.0,16.0,21,0.00,,CLR,0.00,VWS V14.01,2013-03-22 12:14:00,
2013-03-22 05:19:00,54.3,15.2,30.04,North,5,6.0,16.0,21,0.00,,CLR,0.00,VWS V14.01,2013-03-22 12:19:00,
2013-03-22 05:24:00,54.2,15.1,30.04,North,5,8.0,16.0,21,0.00,,CLR,0.00,VWS V14.01,2013-03-22 12:24:00,
2013-03-22 05:29:00,54.1,15.1,30.04,NW,321,8.0,16.0,21,0.00,,CLR,0.00,VWS V14.01,2013-03-22 12:29:00,
2013-03-22 05:34:00,53.9,14.9,30.04,NNE,27,9.0,13.0,21,0.00,,CLR,0.00,VWS V14.01,2013-03-22 12:34:00,
2013-03-22 05:39:00,53.8,14.8,30.04,NW,308,8.0,14.0,21,0.00,,CLR,0.00,VWS V14.01,2013-03-22 12:39:00,
2013-03-22 05:44:00,53.8,14.8,30.05,NW,307,7.0,17.0,21,0.00,,CLR,0.00,VWS V14.01,2013-03-22 12:44:00,
2013-03-22 05:49:00,53.6,14.6,30.05,NE,56,10.0,19.0,21,0.00,,CLR,0.00,VWS V14.01,2013-03-22 12:49:00,
2013-03-22 05:54:00,53.5,14.6,30.05,NNW,348,7.0,19.0,21,0.00,,CLR,0.00,VWS V14.01,2013-03-22 12:54:00,
2013-03-22 05:59:00,53.3,14.4,30.05,NNE,18,9.0,19.0,21,0.00,,CLR,0.00,VWS V14.01,2013-03-22 12:59:00,
2013-03-22 06:04:00,53.2,14.3,30.05,NNE,30,7.0,7.0,21,0.00,,CLR,0.00,VWS V14.01,2013-03-22 13:04:00,
2013-03-22 06:09:00,52.8,15.0,30.05,NNW,330,3.0,8.0,22,0.00,,CLR,0.00,VWS V14.01,2013-03-22 13:09:00,
2013-03-22 06:14:00,52.4,14.7,30.06,NNE,15,3.0,9.0,22,0.00,,CLR,0.00,VWS V14.01,2013-03-22 13:14:00,
2013-03-22 06:19:00,52.1,14.4,30.06,NNE,13,5.0,9.0,22,0.00,,CLR,0.00,VWS V14.01,2013-03-22 13:19:00,
2013-03-22 06:24:00,51.9,15.3,30.06,NNE,20,5.0,11.0,23,0.00,,CLR,0.00,VWS V14.01,2013-03-22 13:24:00,
2013-03-22 06:29:00,51.5,15.9,30.06,NNE,25,3.0,11.0,24,0.00,,CLR,0.00,VWS V14.01,2013-03-22 13:29:00,
2013-03-22 06:34:00,51.0,16.4,30.07,NNE,24,8.0,13.0,25,0.00,,CLR,0.00,VWS V14.01,2013-03-22 13:34:00,
2013-03-22 06:39:00,50.6,17.0,30.06,NNW,347,5.0,13.0,26,0.00,,CLR,0.00,VWS V14.01,2013-03-22 13:39:00,
2013-03-22 06:44:00,50.1,16.6,30.06,NNE,25,4.0,13.0,26,0.00,,CLR,0.00,VWS V14.01,2013-03-22 13:44:00,
2013-03-22 06:49:00,49.9,17.3,30.07,NNE,15,4.0,13.0,27,0.00,,CLR,0.00,VWS V14.01,2013-03-22 13:49:00,
2013-03-22 06:54:00,49.5,16.9,30.06,NNE,15,7.0,13.0,27,0.00,,CLR,0.00,VWS V14.01,2013-03-22 13:54:00,
2013-03-22 06:59:00,49.6,16.1,30.07,North,6,7.0,13.0,26,0.00,,CLR,0.00,VWS V14.01,2013-03-22 13:59:00,
2013-03-22 07:04:00,49.9,15.5,30.07,NNW,330,5.0,9.0,25,0.00,,CLR,0.00,VWS V14.01,2013-03-22 14:04:00,
2013-03-22 07:09:00,49.8,15.4,30.07,North,11,3.0,9.0,25,0.00,,CLR,0.00,VWS V14.01,2013-03-22 14:09:00,
2013-03-22 07:14:00,49.5,16.0,30.07,North,8,5.0,9.0,26,0.00,,CLR,0.00,VWS V14.01,2013-03-22 14:14:00,
2013-03-22 07:19:00,49.4,16.0,30.07,NNE,27,1.0,9.0,26,0.00,,CLR,0.00,VWS V14.01,2013-03-22 14:19:00,
2013-03-22 07:24:00,49.8,13.5,30.07,NNE,19,5.0,9.0,23,0.00,,CLR,0.00,VWS V14.01,2013-03-22 14:24:00,
2013-03-22 07:29:00,50.8,13.3,30.07,NNE,31,3.0,9.0,22,0.00,,CLR,0.00,VWS V14.01,2013-03-22 14:29:00,
2013-03-22 07:34:00,51.4,13.9,30.07,NNE,17,5.0,11.0,22,0.00,,CLR,0.00,VWS V14.01,2013-03-22 14:34:00,
2013-03-22 07:40:00,51.5,13.9,30.07,NNE,30,5.0,11.0,22,0.00,,CLR,0.00,VWS V14.01,2013-03-22 14:40:00,
2013-03-22 07:45:00,51.5,13.9,30.07,NNE,22,6.0,11.0,22,0.00,,CLR,0.00,VWS V14.01,2013-03-22 14:45:00,
2013-03-22 07:50:00,51.7,14.1,30.07,NE,38,5.0,11.0,22,0.00,,CLR,0.00,VWS V14.01,2013-03-22 14:50:00,
2013-03-22 07:55:00,52.0,14.4,30.07,ENE,69,6.0,11.0,22,0.00,,CLR,0.00,VWS V14.01,2013-03-22 14:55:00,
2013-03-22 08:00:00,52.5,14.8,30.07,NE,51,8.0,15.0,22,0.00,,CLR,0.00,VWS V14.01,2013-03-22 15:00:00,
2013-03-22 08:05:00,52.7,14.9,30.07,NNE,15,3.0,10.0,22,0.00,,CLR,0.00,VWS V14.01,2013-03-22 15:05:00,
2013-03-22 08:10:00,52.9,14.1,30.08,NNE,27,7.0,13.0,21,0.00,,CLR,0.00,VWS V14.01,2013-03-22 15:10:00,
2013-03-22 08:15:00,53.1,15.3,30.08,NE,53,6.0,13.0,22,0.00,,CLR,0.00,VWS V14.01,2013-03-22 15:15:00,
2013-03-22 08:20:00,53.3,15.4,30.08,NNE,12,3.0,13.0,22,0.00,,CLR,0.00,VWS V14.01,2013-03-22 15:20:00,
2013-03-22 08:25:00,53.5,15.6,30.08,NE,35,4.0,13.0,22,0.00,,CLR,0.00,VWS V14.01,2013-03-22 15:25:00,
2013-03-22 08:30:00,53.7,15.8,30.08,North,353,6.0,13.0,22,0.00,,CLR,0.00,VWS V14.01,2013-03-22 15:30:00,
2013-03-22 08:35:00,54.0,16.0,30.08,NNE,15,4.0,12.0,22,0.00,,CLR,0.00,VWS V14.01,2013-03-22 15:35:00,
2013-03-22 08:40:00,54.3,16.3,30.08,NNE,19,3.0,12.0,22,0.00,,CLR,0.00,VWS V14.01,2013-03-22 15:40:00,
2013-03-22 08:45:00,54.7,15.6,30.08,NNE,20,11.0,12.0,21,0.00,,CLR,0.00,VWS V14.01,2013-03-22 15:45:00,
2013-03-22 08:50:00,55.1,15.9,30.08,East,81,7.0,14.0,21,0.00,,CLR,0.00,VWS V14.01,2013-03-22 15:50:00,
2013-03-22 08:55:00,55.5,16.2,30.09,NNE,20,8.0,14.0,21,0.00,,CLR,0.00,VWS V14.01,2013-03-22 15:55:00,
2013-03-22 09:00:00,55.8,15.4,30.09,ENE,70,6.0,14.0,20,0.00,,CLR,0.00,VWS V14.01,2013-03-22 16:00:00,
2013-03-22 09:05:00,56.0,14.3,30.09,NNE,18,6.0,14.0,19,0.00,,CLR,0.00,VWS V14.01,2013-03-22 16:05:00,
2013-03-22 09:10:00,56.3,14.6,30.09,NE,53,4.0,14.0,19,0.00,,CLR,0.00,VWS V14.01,2013-03-22 16:10:00,
2013-03-22 09:15:00,56.6,16.0,30.09,NNE,17,7.0,15.0,20,0.00,,CLR,0.00,VWS V14.01,2013-03-22 16:15:00,
2013-03-22 09:20:00,56.8,16.2,30.09,North,9,5.0,15.0,20,0.00,,CLR,0.00,VWS V14.01,2013-03-22 16:20:00,
2013-03-22 09:25:00,57.1,16.4,30.09,NNE,20,3.0,15.0,20,0.00,,CLR,0.00,VWS V14.01,2013-03-22 16:25:00,
2013-03-22 09:30:00,57.4,15.5,30.09,ENE,65,4.0,15.0,19,0.00,,CLR,0.00,VWS V14.01,2013-03-22 16:30:00,
2013-03-22 09:35:00,57.8,15.8,30.09,NNE,12,8.0,12.0,19,0.00,,CLR,0.00,VWS V14.01,2013-03-22 16:35:00,
2013-03-22 09:40:00,58.0,16.0,30.10,West,266,9.0,15.0,19,0.00,,CLR,0.00,VWS V14.01,2013-03-22 16:40:00,
2013-03-22 09:45:00,58.3,17.4,30.10,NNW,328,5.0,16.0,20,0.00,,CLR,0.00,VWS V14.01,2013-03-22 16:45:00,
2013-03-22 09:50:00,58.6,16.5,30.10,NE,40,6.0,16.0,19,0.00,,CLR,0.00,VWS V14.01,2013-03-22 16:50:00,
2013-03-22 09:55:00,58.8,14.1,30.10,North,354,10.0,16.0,17,0.00,,CLR,0.00,VWS V14.01,2013-03-22 16:55:00,
2013-03-22 10:00:00,58.8,15.4,30.10,NNE,20,10.0,16.0,18,0.00,,CLR,0.00,VWS V14.01,2013-03-22 17:00:00,
2013-03-22 10:05:00,58.8,15.4,30.10,North,8,9.0,15.0,18,0.00,,CLR,0.00,VWS V14.01,2013-03-22 17:05:00,
2013-03-22 10:10:00,59.2,15.7,30.10,NNE,23,6.0,15.0,18,0.00,,CLR,0.00,VWS V14.01,2013-03-22 17:10:00,
2013-03-22 10:15:00,59.6,16.1,30.10,North,8,5.0,15.0,18,0.00,,CLR,0.00,VWS V14.01,2013-03-22 17:15:00,
2013-03-22 10:20:00,59.5,16.0,30.10,NNE,13,17.0,18.0,18,0.00,,CLR,0.00,VWS V14.01,2013-03-22 17:20:00,
2013-03-22 10:25:00,59.6,16.1,30.10,North,8,6.0,18.0,18,0.00,,CLR,0.00,VWS V14.01,2013-03-22 17:25:00,
2013-03-22 10:30:00,59.6,16.1,30.10,NW,325,5.0,18.0,18,0.00,,CLR,0.00,VWS V14.01,2013-03-22 17:30:00,
2013-03-22 10:35:00,60.0,17.6,30.10,NNE,25,11.0,13.0,19,0.00,,CLR,0.00,VWS V14.01,2013-03-22 17:35:00,
2013-03-22 10:40:00,60.2,17.8,30.10,NE,41,5.0,16.0,19,0.00,,CLR,0.00,VWS V14.01,2013-03-22 17:40:00,
2013-03-22 10:45:00,60.4,16.7,30.10,North,4,9.0,16.0,18,0.00,,CLR,0.00,VWS V14.01,2013-03-22 17:45:00,
2013-03-22 10:50:00,60.4,18.0,30.10,WNW,297,2.0,17.0,19,0.00,,CLR,0.00,VWS V14.01,2013-03-22 17:50:00,
2013-03-22 10:55:00,60.8,17.0,30.10,NE,34,8.0,17.0,18,0.00,,CLR,0.00,VWS V14.01,2013-03-22 17:55:00,
2013-03-22 11:00:00,60.6,15.6,30.10,North,352,10.0,17.0,17,0.00,,CLR,0.00,VWS V14.01,2013-03-22 18:00:00,
2013-03-22 11:05:00,60.7,17.0,30.10,North,8,8.0,14.0,18,0.00,,CLR,0.00,VWS V14.01,2013-03-22 18:05:00,
2013-03-22 11:10:00,60.8,17.0,30.10,North,360,3.0,14.0,18,0.00,,CLR,0.00,VWS V14.01,2013-03-22 18:10:00,
2013-03-22 11:15:00,61.3,18.7,30.10,NW,323,10.0,15.0,19,0.00,,CLR,0.00,VWS V14.01,2013-03-22 18:15:00,
2013-03-22 11:20:00,61.2,16.1,30.10,NNE,27,10.0,19.0,17,0.00,,CLR,0.00,VWS V14.01,2013-03-22 18:20:00,
2013-03-22 11:25:00,61.1,16.0,30.10,NE,56,15.0,19.0,17,0.00,,CLR,0.00,VWS V14.01,2013-03-22 18:25:00,
2013-03-22 11:30:00,61.4,17.5,30.10,North,359,5.0,19.0,18,0.00,,CLR,0.00,VWS V14.01,2013-03-22 18:30:00,
2013-03-22 11:35:00,62.0,19.3,30.10,NNE,13,14.0,14.0,19,0.00,,CLR,0.00,VWS V14.01,2013-03-22 18:35:00,
2013-03-22 11:40:00,61.9,16.6,30.10,NW,305,5.0,17.0,17,0.00,,CLR,0.00,VWS V14.01,2013-03-22 18:40:00,
2013-03-22 11:45:00,62.1,16.8,30.10,NE,35,7.0,17.0,17,0.00,,CLR,0.00,VWS V14.01,2013-03-22 18:45:00,
2013-03-22 11:50:00,62.2,16.9,30.10,NNE,32,12.0,17.0,17,0.00,,CLR,0.00,VWS V14.01,2013-03-22 18:50:00,
2013-03-22 11:56:00,62.2,16.9,30.10,NW,326,9.0,17.0,17,0.00,,CLR,0.00,VWS V14.01,2013-03-22 18:56:00,
2013-03-22 12:01:00,62.3,17.0,30.10,ENE,68,9.0,17.0,17,0.00,,CLR,0.00,VWS V14.01,2013-03-22 19:01:00,
2013-03-22 12:06:00,62.6,19.8,30.09,NNW,338,5.0,16.0,19,0.00,,CLR,0.00,VWS V14.01,2013-03-22 19:06:00,
2013-03-22 12:11:00,62.3,15.6,30.09,North,11,9.0,18.0,16,0.00,,CLR,0.00,VWS V14.01,2013-03-22 19:11:00,
2013-03-22 12:16:00,62.3,14.1,30.09,NNE,15,6.0,19.0,15,0.00,,CLR,0.00,VWS V14.01,2013-03-22 19:16:00,
2013-03-22 12:21:00,62.3,15.6,30.09,NNW,333,18.0,19.0,16,0.00,,CLR,0.00,VWS V14.01,2013-03-22 19:21:00,
2013-03-22 12:26:00,62.5,17.1,30.09,NE,35,16.0,20.0,17,0.00,,CLR,0.00,VWS V14.01,2013-03-22 19:26:00,
2013-03-22 12:31:00,62.6,17.2,30.09,NNW,330,16.0,16.0,17,0.00,,CLR,0.00,VWS V14.01,2013-03-22 19:31:00,
2013-03-22 12:36:00,63.0,18.9,30.09,NE,38,7.0,16.0,18,0.00,,CLR,0.00,VWS V14.01,2013-03-22 19:36:00,
2013-03-22 12:41:00,63.3,20.4,30.09,NNE,25,4.0,16.0,19,0.00,,CLR,0.00,VWS V14.01,2013-03-22 19:41:00,
2013-03-22 12:46:00,63.8,19.5,30.09,North,356,7.0,16.0,18,0.00,,CLR,0.00,VWS V14.01,2013-03-22 19:46:00,
2013-03-22 12:51:00,63.5,17.9,30.09,NE,51,8.0,16.0,17,0.00,,CLR,0.00,VWS V14.01,2013-03-22 19:51:00,
2013-03-22 12:56:00,63.4,19.2,30.09,NE,51,12.0,18.0,18,0.00,,CLR,0.00,VWS V14.01,2013-03-22 19:56:00,
2013-03-22 13:01:00,63.6,15.1,30.08,North,10,6.0,16.0,15,0.00,,CLR,0.00,VWS V14.01,2013-03-22 20:01:00,
2013-03-22 13:06:00,63.2,16.3,30.08,ENE,69,4.0,19.0,16,0.00,,CLR,0.00,VWS V14.01,2013-03-22 20:06:00,
2013-03-22 13:12:00,63.4,20.5,30.08,North,11,11.0,19.0,19,0.00,,CLR,0.00,VWS V14.01,2013-03-22 20:12:00,
2013-03-22 13:17:00,63.7,21.9,30.08,NW,312,7.0,19.0,20,0.00,,CLR,0.00,VWS V14.01,2013-03-22 20:17:00,
2013-03-22 13:22:00,64.1,18.4,30.08,NE,39,5.0,19.0,17,0.00,,CLR,0.00,VWS V14.01,2013-03-22 20:22:00,
2013-03-22 13:27:00,63.9,18.3,30.08,NNW,335,5.0,19.0,17,0.00,,CLR,0.00,VWS V14.01,2013-03-22 20:27:00,
2013-03-22 13:32:00,64.4,20.0,30.08,NNW,342,5.0,11.0,18,0.00,,CLR,0.00,VWS V14.01,2013-03-22 20:32:00,
2013-03-22 13:37:00,64.6,20.2,30.08,NNE,21,5.0,13.0,18,0.00,,CLR,0.00,VWS V14.01,2013-03-22 20:37:00,
2013-03-22 13:42:00,65.1,20.6,30.07,North,11,3.0,13.0,18,0.00,,CLR,0.00,VWS V14.01,2013-03-22 20:42:00,
2013-03-22 13:47:00,65.2,16.4,30.07,NNE,20,9.0,13.0,15,0.00,,CLR,0.00,VWS V14.01,2013-03-22 20:47:00,
2013-03-22 13:52:00,65.4,18.1,30.07,NNE,15,10.0,14.0,16,0.00,,CLR,0.00,VWS V14.01,2013-03-22 20:52:00,
2013-03-22 13:57:00,65.3,14.9,30.07,NE,56,7.0,15.0,14,0.00,,CLR,0.00,VWS V14.01,2013-03-22 20:57:00,
2013-03-22 14:02:00,65.2,17.9,30.07,NNE,22,8.0,12.0,16,0.00,,CLR,0.00,VWS V14.01,2013-03-22 21:02:00,
2013-03-22 14:07:00,65.4,13.3,30.06,NNE,18,8.0,19.0,13,0.00,,CLR,0.00,VWS V14.01,2013-03-22 21:07:00,
2013-03-22 14:12:00,65.4,15.0,30.06,North,11,16.0,19.0,14,0.00,,CLR,0.00,VWS V14.01,2013-03-22 21:12:00,
2013-03-22 14:17:00,65.4,15.0,30.06,NE,39,9.0,19.0,14,0.00,,CLR,0.00,VWS V14.01,2013-03-22 21:17:00,
2013-03-22 14:22:00,65.6,13.5,30.06,NE,40,15.0,20.0,13,0.00,,CLR,0.00,VWS V14.01,2013-03-22 21:22:00,
2013-03-22 14:27:00,65.5,13.4,30.06,North,11,7.0,20.0,13,0.00,,CLR,0.00,VWS V14.01,2013-03-22 21:27:00,
2013-03-22 14:32:00,65.8,16.9,30.05,North,354,7.0,12.0,15,0.00,,CLR,0.00,VWS V14.01,2013-03-22 21:32:00,
2013-03-22 14:37:00,66.0,17.1,30.05,NNE,26,5.0,13.0,15,0.00,,CLR,0.00,VWS V14.01,2013-03-22 21:37:00,
2013-03-22 14:42:00,66.2,18.7,30.05,North,350,5.0,13.0,16,0.00,,CLR,0.00,VWS V14.01,2013-03-22 21:42:00,
2013-03-22 14:47:00,66.2,18.7,30.05,NNE,27,6.0,20.0,16,0.00,,CLR,0.00,VWS V14.01,2013-03-22 21:47:00,
2013-03-22 14:52:00,66.4,15.8,30.05,NNE,25,10.0,20.0,14,0.00,,CLR,0.00,VWS V14.01,2013-03-22 21:52:00,
2013-03-22 14:58:00,66.4,17.4,30.04,NNE,29,4.0,20.0,15,0.00,,CLR,0.00,VWS V14.01,2013-03-22 21:58:00,
2013-03-22 15:03:00,66.4,15.8,30.04,NE,44,11.0,14.0,14,0.00,,CLR,0.00,VWS V14.01,2013-03-22 22:03:00,
2013-03-22 15:08:00,66.3,17.3,30.04,NE,53,10.0,15.0,15,0.00,,CLR,0.00,VWS V14.01,2013-03-22 22:08:00,
2013-03-22 15:13:00,66.3,17.3,30.03,NNW,348,11.0,21.0,15,0.00,,CLR,0.00,VWS V14.01,2013-03-22 22:13:00,
2013-03-22 15:18:00,66.3,17.3,30.03,NE,49,9.0,21.0,15,0.00,,CLR,0.00,VWS V14.01,2013-03-22 22:18:00,
2013-03-22 15:23:00,66.3,18.8,30.03,NNE,24,11.0,21.0,16,0.00,,CLR,0.00,VWS V14.01,2013-03-22 22:23:00,
2013-03-22 15:28:00,66.3,17.3,30.03,NNE,24,5.0,21.0,15,0.00,,CLR,0.00,VWS V14.01,2013-03-22 22:28:00,
2013-03-22 15:33:00,66.3,18.8,30.03,NNW,335,8.0,15.0,16,0.00,,CLR,0.00,VWS V14.01,2013-03-22 22:33:00,
2013-03-22 15:38:00,66.3,18.8,30.03,NE,40,4.0,15.0,16,0.00,,CLR,0.00,VWS V14.01,2013-03-22 22:38:00,
2013-03-22 15:43:00,66.4,20.3,30.03,NNE,32,10.0,15.0,17,0.00,,CLR,0.00,VWS V14.01,2013-03-22 22:43:00,
2013-03-22 15:48:00,66.4,20.3,30.03,NNE,24,7.0,16.0,17,0.00,,CLR,0.00,VWS V14.01,2013-03-22 22:48:00,
2013-03-22 15:53:00,66.9,22.0,30.03,NNW,347,3.0,16.0,18,0.00,,CLR,0.00,VWS V14.01,2013-03-22 22:53:00,
2013-03-22 15:58:00,67.2,19.5,30.03,NNE,12,14.0,20.0,16,0.00,,CLR,0.00,VWS V14.01,2013-03-22 22:58:00,
2013-03-22 16:03:00,67.0,19.4,30.03,NNE,19,3.0,14.0,16,0.00,,CLR,0.00,VWS V14.01,2013-03-22 23:03:00,
2013-03-22 16:08:00,66.9,16.2,30.03,WNW,295,7.0,14.0,14,0.00,,CLR,0.00,VWS V14.01,2013-03-22 23:08:00,
2013-03-22 16:13:00,66.6,17.5,30.02,North,6,17.0,17.0,15,0.00,,CLR,0.00,VWS V14.01,2013-03-22 23:13:00,
2013-03-22 16:18:00,66.5,17.5,30.03,NE,35,12.0,17.0,15,0.00,,CLR,0.00,VWS V14.01,2013-03-22 23:18:00,
2013-03-22 16:23:00,66.8,17.7,30.02,NNW,342,9.0,17.0,15,0.00,,CLR,0.00,VWS V14.01,2013-03-22 23:23:00,
2013-03-22 16:28:00,66.6,19.0,30.02,North,6,5.0,17.0,16,0.00,,CLR,0.00,VWS V14.01,2013-03-22 23:28:00,
2013-03-22 16:33:00,66.4,17.4,30.03,North,359,11.0,19.0,15,0.00,,CLR,0.00,VWS V14.01,2013-03-22 23:33:00,
2013-03-22 16:38:00,66.3,17.3,30.02,North,1,9.0,19.0,15,0.00,,CLR,0.00,VWS V14.01,2013-03-22 23:38:00,
2013-03-22 16:43:00,66.3,17.3,30.02,ENE,78,8.0,19.0,15,0.00,,CLR,0.00,VWS V14.01,2013-03-22 23:43:00,
2013-03-22 16:48:00,66.3,18.8,30.02,NNE,33,10.0,19.0,16,0.00,,CLR,0.00,VWS V14.01,2013-03-22 23:48:00,
2013-03-22 16:53:00,66.2,18.7,30.02,NE,56,7.0,21.0,16,0.00,,CLR,0.00,VWS V14.01,2013-03-22 23:53:00,
2013-03-22 16:58:00,66.2,18.7,30.02,NNW,332,5.0,21.0,16,0.00,,CLR,0.00,VWS V14.01,2013-03-22 23:58:00,
2013-03-22 17:03:00,66.2,18.7,30.01,NE,37,2.0,11.0,16,0.00,,CLR,0.00,VWS V14.01,2013-03-23 00:03:00,
2013-03-22 17:08:00,66.4,20.3,30.01,North,5,9.0,12.0,17,0.00,,CLR,0.00,VWS V14.01,2013-03-23 00:08:00,
2013-03-22 17:13:00,66.3,20.2,30.01,NNE,33,10.0,17.0,17,0.00,,CLR,0.00,VWS V14.01,2013-03-23 00:13:00,
2013-03-22 17:18:00,66.2,18.7,30.01,NE,38,6.0,17.0,16,0.00,,CLR,0.00,VWS V14.01,2013-03-23 00:18:00,
2013-03-22 17:23:00,66.1,20.0,30.01,North,5,9.0,17.0,17,0.00,,CLR,0.00,VWS V14.01,2013-03-23 00:23:00,
2013-03-22 17:28:00,65.9,19.9,30.01,NNW,335,2.0,17.0,17,0.00,,CLR,0.00,VWS V14.01,2013-03-23 00:28:00,
2013-03-22 17:33:00,65.9,19.9,30.02,West,274,4.0,8.0,17,0.00,,CLR,0.00,VWS V14.01,2013-03-23 00:33:00,
2013-03-22 17:38:00,66.1,18.6,30.01,NE,46,7.0,9.0,16,0.00,,CLR,0.00,VWS V14.01,2013-03-23 00:38:00,
2013-03-22 17:43:00,65.8,18.4,30.01,NE,46,8.0,14.0,16,0.00,,CLR,0.00,VWS V14.01,2013-03-23 00:43:00,
2013-03-22 17:48:00,65.8,18.4,30.01,NNW,345,4.0,14.0,16,0.00,,CLR,0.00,VWS V14.01,2013-03-23 00:48:00,
2013-03-22 17:53:00,65.7,19.7,30.01,North,6,5.0,14.0,17,0.00,,CLR,0.00,VWS V14.01,2013-03-23 00:53:00,
2013-03-22 17:58:00,65.6,19.6,30.02,NNE,27,5.0,14.0,17,0.00,,CLR,0.00,VWS V14.01,2013-03-23 00:58:00,
2013-03-22 18:03:00,65.4,19.5,30.02,NNW,337,1.0,11.0,17,0.00,,CLR,0.00,VWS V14.01,2013-03-23 01:03:00,
2013-03-22 18:08:00,65.2,17.9,30.01,North,1,4.0,11.0,16,0.00,,CLR,0.00,VWS V14.01,2013-03-23 01:08:00,
2013-03-22 18:13:00,65.0,17.8,30.02,North,359,3.0,11.0,16,0.00,,CLR,0.00,VWS V14.01,2013-03-23 01:13:00,
2013-03-22 18:18:00,64.8,17.6,30.02,NNE,23,4.0,11.0,16,0.00,,CLR,0.00,VWS V14.01,2013-03-23 01:18:00,
2013-03-22 18:23:00,64.7,18.9,30.02,NE,34,8.0,11.0,17,0.00,,CLR,0.00,VWS V14.01,2013-03-23 01:23:00,
2013-03-22 18:28:00,64.5,18.8,30.02,North,11,3.0,11.0,17,0.00,,CLR,0.00,VWS V14.01,2013-03-23 01:28:00,
2013-03-22 18:33:00,64.3,18.6,30.02,NNW,348,1.0,8.0,17,0.00,,CLR,0.00,VWS V14.01,2013-03-23 01:33:00,
2013-03-22 18:38:00,64.1,18.4,30.02,NNE,33,4.0,9.0,17,0.00,,CLR,0.00,VWS V14.01,2013-03-23 01:38:00,
2013-03-22 18:43:00,63.8,18.2,30.02,NNE,21,3.0,9.0,17,0.00,,CLR,0.00,VWS V14.01,2013-03-23 01:43:00,
2013-03-22 18:48:00,63.5,19.3,30.02,NE,37,4.0,9.0,18,0.00,,CLR,0.00,VWS V14.01,2013-03-23 01:48:00,
2013-03-22 18:54:00,63.2,19.0,30.02,NNE,14,2.0,11.0,18,0.00,,CLR,0.00,VWS V14.01,2013-03-23 01:54:00,
2013-03-22 18:59:00,62.7,19.9,30.02,NNE,21,4.0,11.0,19,0.00,,CLR,0.00,VWS V14.01,2013-03-23 01:59:00,
2013-03-22 19:04:00,62.2,19.5,30.02,North,8,5.0,11.0,19,0.00,,CLR,0.00,VWS V14.01,2013-03-23 02:04:00,
2013-03-22 19:09:00,61.7,20.2,30.02,NNE,21,4.0,11.0,20,0.00,,CLR,0.00,VWS V14.01,2013-03-23 02:09:00,
2013-03-22 19:14:00,61.3,19.9,30.02,NNW,345,1.0,11.0,20,0.00,,CLR,0.00,VWS V14.01,2013-03-23 02:14:00,
2013-03-22 19:19:00,61.1,19.8,30.02,NNE,29,4.0,11.0,20,0.00,,CLR,0.00,VWS V14.01,2013-03-23 02:19:00,
2013-03-22 19:24:00,60.8,20.6,30.02,NNW,346,2.0,11.0,21,0.00,,CLR,0.00,VWS V14.01,2013-03-23 02:24:00,
2013-03-22 19:29:00,60.5,20.4,30.02,North,4,2.0,11.0,21,0.00,,CLR,0.00,VWS V14.01,2013-03-23 02:29:00,
2013-03-22 19:34:00,60.1,21.1,30.02,North,358,2.0,4.0,22,0.00,,CLR,0.00,VWS V14.01,2013-03-23 02:34:00,
2013-03-22 19:39:00,59.8,20.9,30.02,NNE,16,1.0,4.0,22,0.00,,CLR,0.00,VWS V14.01,2013-03-23 02:39:00,
2013-03-22 19:44:00,59.6,20.7,30.02,NNE,31,4.0,5.0,22,0.00,,CLR,0.00,VWS V14.01,2013-03-23 02:44:00,
2013-03-22 19:49:00,59.5,20.6,30.02,NNW,333,3.0,7.0,22,0.00,,CLR,0.00,VWS V14.01,2013-03-23 02:49:00,
2013-03-22 19:54:00,59.5,21.7,30.02,NW,314,3.0,9.0,23,0.00,,CLR,0.00,VWS V14.01,2013-03-23 02:54:00,
2013-03-22 19:59:00,59.6,21.8,30.03,NE,41,4.0,9.0,23,0.00,,CLR,0.00,VWS V14.01,2013-03-23 02:59:00,
2013-03-22 20:04:00,59.6,21.8,30.02,NNE,15,4.0,9.0,23,0.00,,CLR,0.00,VWS V14.01,2013-03-23 03:04:00,
2013-03-22 20:09:00,59.6,21.8,30.03,NE,37,2.0,9.0,23,0.00,,CLR,0.00,VWS V14.01,2013-03-23 03:09:00,
2013-03-22 20:14:00,59.5,21.7,30.03,WNW,300,1.0,9.0,23,0.00,,CLR,0.00,VWS V14.01,2013-03-23 03:14:00,
2013-03-22 20:19:00,59.5,21.7,30.03,NNW,347,2.0,11.0,23,0.00,,CLR,0.00,VWS V14.01,2013-03-23 03:19:00,
2013-03-22 20:24:00,59.4,21.6,30.03,NW,325,1.0,11.0,23,0.00,,CLR,0.00,VWS V14.01,2013-03-23 03:24:00,
2013-03-22 20:29:00,59.3,20.5,30.03,NNW,336,2.0,11.0,22,0.00,,CLR,0.00,VWS V14.01,2013-03-23 03:29:00,
2013-03-22 20:34:00,59.3,20.5,30.03,West,281,2.0,10.0,22,0.00,,CLR,0.00,VWS V14.01,2013-03-23 03:34:00,
2013-03-22 20:39:00,59.3,20.5,30.03,NNE,18,3.0,10.0,22,0.00,,CLR,0.00,VWS V14.01,2013-03-23 03:39:00,
2013-03-22 20:44:00,59.4,19.5,30.03,North,355,4.0,11.0,21,0.00,,CLR,0.00,VWS V14.01,2013-03-23 03:44:00,
2013-03-22 20:49:00,59.5,19.6,30.03,NNE,15,8.0,11.0,21,0.00,,CLR,0.00,VWS V14.01,2013-03-23 03:49:00,
2013-03-22 20:54:00,59.6,19.6,30.03,NNW,337,3.0,11.0,21,0.00,,CLR,0.00,VWS V14.01,2013-03-23 03:54:00,
2013-03-22 20:59:00,59.5,19.6,30.03,ENE,58,4.0,11.0,21,0.00,,CLR,0.00,VWS V14.01,2013-03-23 03:59:00,
2013-03-22 21:00:00,59.5,19.6,30.03,NNE,28,6.0,11.0,21,0.00,,CLR,0.00,VWS V14.01,2013-03-23 04:00:00,
2013-03-22 21:05:00,59.5,19.6,30.03,NNE,30,7.0,11.0,21,0.00,,CLR,0.00,VWS V14.01,2013-03-23 04:05:00,
2013-03-22 21:10:00,59.4,20.6,30.03,NNW,341,2.0,11.0,22,0.00,,CLR,0.00,VWS V14.01,2013-03-23 04:10:00,
2013-03-22 21:15:00,59.5,19.6,30.04,NE,35,6.0,11.0,21,0.00,,CLR,0.00,VWS V14.01,2013-03-23 04:15:00,
2013-03-22 21:20:00,59.6,19.6,30.04,North,5,2.0,16.0,21,0.00,,CLR,0.00,VWS V14.01,2013-03-23 04:20:00,
2013-03-22 21:25:00,59.6,19.6,30.04,North,353,5.0,16.0,21,0.00,,CLR,0.00,VWS V14.01,2013-03-23 04:25:00,
2013-03-22 21:30:00,59.6,19.6,30.04,NNE,28,4.0,16.0,21,0.00,,CLR,0.00,VWS V14.01,2013-03-23 04:30:00,
2013-03-22 21:35:00,59.5,19.6,30.04,North,356,1.0,9.0,21,0.00,,CLR,0.00,VWS V14.01,2013-03-23 04:35:00,
2013-03-22 21:40:00,59.5,19.6,30.05,North,9,4.0,13.0,21,0.00,,CLR,0.00,VWS V14.01,2013-03-23 04:40:00,
2013-03-22 21:45:00,59.4,19.5,30.05,WNW,296,1.0,13.0,21,0.00,,CLR,0.00,VWS V14.01,2013-03-23 04:45:00,
2013-03-22 21:50:00,59.3,19.4,30.04,NNW,347,1.0,13.0,21,0.00,,CLR,0.00,VWS V14.01,2013-03-23 04:50:00,
2013-03-22 21:55:00,59.2,19.3,30.05,NNW,346,4.0,13.0,21,0.00,,CLR,0.00,VWS V14.01,2013-03-23 04:55:00,
2013-03-22 22:00:00,59.1,20.3,30.05,North,4,1.0,13.0,22,0.00,,CLR,0.00,VWS V14.01,2013-03-23 05:00:00,
2013-03-22 22:05:00,58.9,20.1,30.04,NNE,13,4.0,7.0,22,0.00,,CLR,0.00,VWS V14.01,2013-03-23 05:05:00,
2013-03-22 22:10:00,58.9,20.1,30.04,WNW,283,3.0,9.0,22,0.00,,CLR,0.00,VWS V14.01,2013-03-23 05:10:00,
2013-03-22 22:15:00,58.8,20.1,30.04,North,358,2.0,9.0,22,0.00,,CLR,0.00,VWS V14.01,2013-03-23 05:15:00,
2013-03-22 22:20:00,58.8,20.1,30.04,West,276,2.0,11.0,22,0.00,,CLR,0.00,VWS V14.01,2013-03-23 05:20:00,
2013-03-22 22:25:00,58.7,20.0,30.04,NW,321,1.0,11.0,22,0.00,,CLR,0.00,VWS V14.01,2013-03-23 05:25:00,
2013-03-22 22:30:00,58.3,19.6,30.05,NNE,12,3.0,11.0,22,0.00,,CLR,0.00,VWS V14.01,2013-03-23 05:30:00,
2013-03-22 22:35:00,58.3,19.6,30.04,North,8,3.0,8.0,22,0.00,,CLR,0.00,VWS V14.01,2013-03-23 05:35:00,
2013-03-22 22:40:00,58.3,19.6,30.04,NNW,342,2.0,8.0,22,0.00,,CLR,0.00,VWS V14.01,2013-03-23 05:40:00,
2013-03-22 22:45:00,58.4,19.7,30.05,NNE,19,1.0,8.0,22,0.00,,CLR,0.00,VWS V14.01,2013-03-23 05:45:00,
2013-03-22 22:50:00,58.2,19.6,30.05,NW,321,2.0,9.0,22,0.00,,CLR,0.00,VWS V14.01,2013-03-23 05:50:00,
2013-03-22 22:55:00,58.0,20.4,30.05,NNE,15,3.0,9.0,23,0.00,,CLR,0.00,VWS V14.01,2013-03-23 05:55:00,
2013-03-22 23:00:00,58.0,19.4,30.05,NNE,17,3.0,9.0,22,0.00,,CLR,0.00,VWS V14.01,2013-03-23 06:00:00,
2013-03-22 23:05:00,58.1,19.5,30.05,North,1,2.0,9.0,22,0.00,,CLR,0.00,VWS V14.01,2013-03-23 06:05:00,
2013-03-22 23:10:00,58.6,18.8,30.05,NNE,27,3.0,9.0,21,0.00,,CLR,0.00,VWS V14.01,2013-03-23 06:10:00,
2013-03-22 23:15:00,59.0,19.1,30.06,NE,34,3.0,10.0,21,0.00,,CLR,0.00,VWS V14.01,2013-03-23 06:15:00,
2013-03-22 23:20:00,59.0,18.0,30.06,WNW,295,3.0,10.0,20,0.00,,CLR,0.00,VWS V14.01,2013-03-23 06:20:00,
2013-03-22 23:25:00,59.1,18.1,30.05,NE,39,3.0,10.0,20,0.00,,CLR,0.00,VWS V14.01,2013-03-23 06:25:00,
2013-03-22 23:31:00,59.1,18.1,30.06,NNE,30,4.0,10.0,20,0.00,,CLR,0.00,VWS V14.01,2013-03-23 06:31:00,
2013-03-22 23:36:00,59.0,18.0,30.06,NNW,334,2.0,10.0,20,0.00,,CLR,0.00,VWS V14.01,2013-03-23 06:36:00,
2013-03-22 23:40:00,58.9,19.1,30.06,North,9,3.0,10.0,21,0.00,,CLR,0.00,VWS V14.01,2013-03-23 06:40:00,
2013-03-22 23:45:00,58.7,17.8,30.06,NNE,25,3.0,10.0,20,0.00,,CLR,0.00,VWS V14.01,2013-03-23 06:45:00,
2013-03-22 23:50:00,58.6,18.8,30.06,NNW,330,4.0,10.0,21,0.00,,CLR,0.00,VWS V14.01,2013-03-23 06:50:00,
2013-03-22 23:55:00,58.4,18.6,30.06,NNW,333,2.0,10.0,21,0.00,,CLR,0.00,VWS V14.01,2013-03-23 06:55:00,